Hourly Weather Roundup
Issued by NWS Central Illinois

Home | Current Version | Previous Version | Text Only | Print | Product List | Glossary On
Versions: 1 2 3 4 5 6 7 8 9 10 11 12 13 14 15 16 17 18 19 20 21 22 23 24 25 26 27 28 29 30 31 32 33 34 35 36 37 38 39 40 41 42 43 44 45 46 47 48 49 50
000
NZUS43 KILX 191210
HWRILX

AREA WEATHER ROUNDUP
NATIONAL WEATHER SERVICE, LINCOLN IL
600 AM CST FRI DEC 19 2014


CITY           SKY/WX    TMP DP  RH WIND       PRES   REMARKS
BLOOMINGTON    CLEAR     20  18  92 CALM      30.29S
6HR MIN TEMP:  18; 6HR MAX TEMP:  21;

CHAMPAIGN      CLEAR     16  13  88 CALM      30.28F
6HR MIN TEMP:  16; 6HR MAX TEMP:  21;

DECATUR        CLEAR     20  17  88 CALM      30.29F FOG
6HR MIN TEMP:  19; 6HR MAX TEMP:  27;

FLORA          CLEAR     27  24  89 NE5       30.29F FOG     WCI  21
6HR MIN TEMP:  27; 6HR MAX TEMP:  31;

GALESBURG      CLEAR     20  18  91 CALM      30.30R
JACKSONVILLE   CLOUDY    30  26  83 CALM      30.29F
6HR MIN TEMP:  30; 6HR MAX TEMP:  31;

LACON          CLEAR     14  11  87 CALM      30.30S
6HR MIN TEMP:  13; 6HR MAX TEMP:  17;

LAWRENCEVILLE  MOCLDY    27  23  85 N7        30.29F WCI  19
6HR MIN TEMP:  24; 6HR MAX TEMP:  30;

LITCHFIELD     CLOUDY    29  26  88 N5        30.27F FOG     WCI  24
$$


CITY           SKY/WX    TMP DP  RH WIND       PRES   REMARKS
LINCOLN        CLEAR     19  18  93 CALM      30.32R FOG
6HR MIN TEMP:  18; 6HR MAX TEMP:  27;

MACOMB         CLOUDY    26  23  87 E6        30.32S WCI  19
MATTOON        CLEAR     21  18  88 N3        30.28F
6HR MIN TEMP:  20; 6HR MAX TEMP:  28;

MT CARMEL AP   CLEAR     30  25  80 N7        30.29F WCI  23
OLNEY-NOBLE AP PTCLDY    27  23  86 CALM      30.29F
PARIS          CLEAR     21  19  94 CALM      30.31R
6HR MIN TEMP:  21; 6HR MAX TEMP:  28;

PEORIA         CLEAR     19  14  81 CALM      30.31R HAZE
6HR MIN TEMP:  19; 6HR MAX TEMP:  23;

PONTIAC        CLEAR     17  15  91 CALM      30.30S
RANTOUL        CLEAR     19  17  89 CALM      30.29S
6HR MIN TEMP:  18; 6HR MAX TEMP:  23;

ROBINSON       CLEAR     26  23  89 N3        30.31F
6HR MIN TEMP:  24; 6HR MAX TEMP:  28;

SPRINGFIELD    CLEAR     25  21  85 NE5       30.30S WCI  19
6HR MIN TEMP:  25; 6HR MAX TEMP:  30;

TAYLORVILLE    CLOUDY    28  23  80 NE3       30.29F
$$

...REGIONAL REPORTS...


CITY           SKY/WX    TMP DP  RH WIND       PRES   REMARKS
CHICAGO O`HARE CLOUDY    28  22  78 N6        30.27R WCI  22
KANKAKEE       CLOUDY    26  21  82 CALM      30.29S
MOLINE         CLEAR     17  13  84 CALM      30.30R
MOUNT VERNON   PTCLDY    28  21  74 CALM      30.29R
PITTSFIELD     CLOUDY    30  28  90 NE3       30.29S
QUINCY         CLOUDY    28  25  88 NE5       30.28S WCI  23
ROCKFORD       CLOUDY    27  20  75 NE3       30.30S
$$


CITY           SKY/WX    TMP DP  RH WIND       PRES   REMARKS
BURLINGTON     CLOUDY    27  21  78 NE5       30.29R WCI  22
CEDAR RAPIDS   CLOUDY    23  21  92 E5        30.27R WCI  17
DES MOINES     LGT SNOW  29  25  85 SE5       30.25F FOG     WCI  24
KIRKSVILLE     CLOUDY    28  27  93 CALM      30.27S
OTTUMWA        CLOUDY    27  23  85 SE5       30.27S WCI  22
ST LOUIS       MOCLDY    33  26  75 E5        30.28S WCI  29
$$


CITY           SKY/WX    TMP DP  RH WIND       PRES   REMARKS
TERRE HAUTE    CLEAR     22  19  89 N3        30.29F
EVANSVILLE     CLOUDY    32  24  72 NE7       30.28F WCI  26
INDIANAPOLIS   PTCLDY    20  17  88 NW6       30.27R WCI  12
LAFAYETTE      CLOUDY    21  19  92 CALM      30.29R
MADISON        CLOUDY    26  20  77 W3        30.27S
MILWAUKEE      MOCLDY    27  18  69 NW6       30.29R WCI  20
$$





USA.gov is the U.S. government's official web portal to all federal, state and local government web resources and services.